This demonstration page uses our WeatherBlox Daily Observations layout. Learn more.

Left ArrowRight Arrow

Hourly Observations for February 18, 2022

Temp ( °F °C ) Dew Point ( °F °C ) Humidity (%) Winds ( mph kmh ) Pressure ( in mb ) Visibility ( mi km ) Precip ( " mm )
12:15 am 00:15 Clear 26 -3.1 5 -15.2 39 39 SW 15 24 30.22 1023 10 16 0.00 0.00
12:35 am 00:35 Clear 28 -2.5 8 -13.1 44 44 SW 15 24 30.21 1023 10 16 0.00 0.00
12:55 am 00:55 Clear 28 -2.3 10 -12.1 47 47 SW 14 22 30.21 1023 10 16 0.00 0.00
1:15 am 01:15 Clear 28 -2.1 12 -11.1 51 51 SW 13 20 30.20 1023 10 16 0.00 0.00
1:35 am 01:35 Partly Cloudy 29 -1.6 14 -10 53 53 SW 12 19 30.19 1022 10 16 0.00 0.00
1:55 am 01:55 Mostly Cloudy 29 -1.5 15 -9.5 55 55 SW 9 15 30.19 1022 10 16 0.00 0.00
2:15 am 02:15 Cloudy 29 -1.4 16 -9 57 57 SW 10 17 30.19 1022 10 16 0.00 0.00
2:35 am 02:35 Mostly Cloudy 29 -1.5 16 -8.8 58 58 SW 9 15 30.18 1022 10 16 0.00 0.00
2:55 am 02:55 Partly Cloudy 29 -1.5 17 -8.5 59 59 WSW 10 17 30.17 1022 10 16 0.00 0.00
3:15 am 03:15 Clear 29 -1.5 17 -8.2 61 61 WSW 10 17 30.16 1021 10 16 0.00 0.00
3:35 am 03:35 Clear 29 -1.8 17 -8.2 62 62 WSW 9 15 30.15 1021 10 16 0.00 0.00
3:55 am 03:55 Clear 29 -1.7 17 -8.1 62 62 WSW 12 19 30.15 1021 10 16 0.00 0.00
4:15 am 04:15 Clear 28 -2.1 17 -8.3 63 63 SW 9 15 30.16 1021 10 16 0.00 0.00
4:35 am 04:35 Clear 27 -2.7 17 -8.5 65 65 WSW 8 13 30.16 1021 10 16 0.00 0.00
4:55 am 04:55 Clear 27 -2.6 17 -8.4 65 65 WSW 10 17 30.16 1021 10 16 0.00 0.00
5:15 am 05:15 Clear 28 -2.3 17 -8.1 65 65 WSW 12 19 30.16 1021 10 16 0.00 0.00
5:35 am 05:35 Clear 28 -2.1 17 -8.1 64 64 WSW 12 19 30.15 1021 10 16 0.00 0.00
5:55 am 05:55 Clear 29 -1.7 18 -8 63 63 W 14 22 30.14 1021 10 16 0.00 0.00
6:15 am 06:15 Clear 29 -1.7 18 -8 63 63 WSW 14 22 30.15 1021 10 16 0.00 0.00
6:35 am 06:35 Mostly Cloudy 29 -1.7 18 -8 63 63 WSW 12 19 30.15 1021 10 16 0.00 0.00
6:55 am 06:55 Partly Cloudy 28 -2 18 -8 64 64 WSW 13 20 30.15 1021 10 16 0.00 0.00
7:15 am 07:15 Clear 27 -2.6 17 -8.1 66 66 W 13 20 30.17 1022 10 16 0.00 0.00
7:35 am 07:35 Sunny 27 -2.7 17 -8.1 67 67 W 12 19 30.17 1022 10 16 0.00 0.00
7:55 am 07:55 Sunny 28 -2.5 18 -7.8 67 67 W 12 19 30.18 1022 10 16 0.00 0.00
8:15 am 08:15 Sunny 29 -1.9 18 -7.7 65 65 W 14 22 30.18 1022 10 16 0.00 0.00
8:35 am 08:35 Sunny 31 -0.6 19 -7.1 62 62 W 13 20 30.18 1022 10 16 0.00 0.00
8:55 am 08:55 Sunny 33 0.7 20 -6.6 59 59 W 9 15 30.17 1022 10 16 0.00 0.00
9:15 am 09:15 Sunny 37 2.6 21 -6 53 53 W 12 19 30.16 1021 10 16 0.00 0.00
9:35 am 09:35 Sunny 39 3.9 22 -5.5 51 51 WNW 13 20 30.15 1021 10 16 0.00 0.00
9:55 am 09:55 Sunny 41 5 22 -5.3 48 48 WNW 14 22 30.14 1021 10 16 0.00 0.00
10:15 am 10:15 Sunny 43 6 23 -5 46 46 WNW 14 22 30.13 1020 10 16 0.00 0.00
10:35 am 10:35 Sunny 44 6.4 23 -5 44 44 W 15 24 30.13 1020 10 16 0.00 0.00
10:55 am 10:55 Sunny 47 8.5 24 -4.2 41 41 WNW 14 22 30.11 1020 10 16 0.00 0.00
11:15 am 11:15 Sunny 49 9.7 25 -4 38 38 W 10 17 30.09 1019 10 16 0.00 0.00
11:35 am 11:35 Sunny 52 11 26 -3.6 36 36 WNW 12 19 30.07 1018 10 16 0.00 0.00
11:55 am 11:55 Sunny 52 11.1 25 -4 35 35 W 16 26 30.06 1018 10 16 0.00 0.00
12:15 pm 12:15 Sunny 54 12 24 -4.3 32 32 WNW 15 24 30.06 1018 10 16 0.00 0.00
12:35 pm 12:35 Sunny 54 12.3 24 -4.3 31 31 W 16 26 30.05 1018 10 16 0.00 0.00
12:55 pm 12:55 Sunny 55 12.5 24 -4.7 30 30 WNW 13 20 30.04 1017 10 16 0.00 0.00
1:15 pm 13:15 Sunny 55 12.9 23 -5.2 28 28 WNW 16 26 30.03 1017 10 16 0.00 0.00
1:35 pm 13:35 Sunny 56 13.3 22 -5.4 27 27 WNW 18 30 30.01 1016 10 16 0.00 0.00
1:55 pm 13:55 Sunny 57 13.7 22 -5.5 26 26 NW 16 26 30.00 1016 10 16 0.00 0.00
2:15 pm 14:15 Sunny 57 14 21 -6 25 25 WNW 14 22 29.99 1015 10 16 0.00 0.00
2:35 pm 14:35 Sunny 58 14.3 21 -6 24 24 WNW 20 31 29.99 1015 10 16 0.00 0.00
2:55 pm 14:55 Sunny 58 14.3 21 -6.1 24 24 WNW 20 31 29.99 1015 10 16 0.00 0.00
3:15 pm 15:15 Sunny 58 14.5 20 -6.6 23 23 WNW 23 37 29.98 1015 10 16 0.00 0.00
3:35 pm 15:35 Sunny 56 13.6 19 -7.3 23 23 WNW 20 31 29.99 1016 10 16 0.00 0.00
3:55 pm 15:55 Partly Cloudy 56 13.6 19 -7.4 23 23 W 18 30 29.99 1016 10 16 0.00 0.00
4:15 pm 16:15 Cloudy 57 14 18 -7.7 22 22 WNW 17 28 29.99 1015 10 16 0.00 0.00
4:35 pm 16:35 Mostly Cloudy 58 14.5 17 -8.3 20 20 WNW 21 33 29.98 1015 10 16 0.00 0.00
4:55 pm 16:55 Partly Cloudy 57 14.1 17 -8.2 21 21 WNW 14 22 29.99 1015 10 16 0.00 0.00
5:15 pm 17:15 Mostly Cloudy 57 13.8 17 -8.1 21 21 WNW 17 28 30.01 1016 10 16 0.00 0.00
5:35 pm 17:35 Partly Cloudy 56 13.4 18 -7.7 23 23 WNW 15 24 30.01 1016 10 16 0.00 0.00
5:55 pm 17:55 Partly Cloudy 54 12 18 -8 24 24 NW 14 22 30.05 1017 10 16 0.00 0.00
6:15 pm 18:15 Partly Cloudy 52 11.3 17 -8.1 25 25 NW 14 22 30.06 1018 10 16 0.00 0.00
6:35 pm 18:35 Partly Cloudy 51 10.4 18 -7.6 28 28 NW 10 17 30.08 1019 10 16 0.00 0.00
6:55 pm 18:55 Clear 49 9.7 19 -7.1 30 30 NW 10 17 30.10 1019 10 16 0.00 0.00
7:15 pm 19:15 Clear 48 8.8 19 -7 32 32 NW 8 13 30.11 1020 10 16 0.00 0.00
7:35 pm 19:35 Clear 44 6.5 18 -7.7 36 36 NW 7 11 30.15 1021 10 16 0.00 0.00
7:55 pm 19:55 Clear 43 6.3 19 -7.4 37 37 NW 8 13 30.17 1022 10 16 0.00 0.00
8:15 pm 20:15 Partly Cloudy 46 7.8 22 -5.6 38 38 NNE 17 28 30.17 1022 10 16 0.00 0.00
8:35 pm 20:35 Partly Cloudy 43 6.2 25 -3.7 49 49 NNE 16 26 30.21 1023 10 16 0.00 0.00
8:55 pm 20:55 Clear 41 4.9 26 -3.3 56 56 NNE 16 26 30.25 1024 10 16 0.00 0.00
9:15 pm 21:15 Clear 39 4 26 -3.3 59 59 N 20 31 30.28 1025 10 16 0.00 0.00
9:35 pm 21:35 Clear 37 2.7 25 -3.7 63 63 N 12 19 30.30 1026 10 16 0.00 0.00
9:55 pm 21:55 Clear 33 0.6 24 -4.6 68 68 NNE 5 7 30.33 1027 10 16 0.00 0.00
10:15 pm 22:15 Clear 32 0 23 -4.9 70 70 N 5 7 30.37 1028 10 16 0.00 0.00
10:35 pm 22:35 Clear 28 -2.1 21 -6.3 73 73 N 7 11 30.39 1029 10 16 0.00 0.00
10:55 pm 22:55 Clear 29 -1.5 23 -5.1 77 77 NNE 10 17 30.39 1029 10 16 0.00 0.00
11:15 pm 23:15 Clear 32 0 25 -4 75 75 NE 17 28 30.39 1029 10 16 0.00 0.00
11:35 pm 23:35 Clear 30 -1 24 -4.5 77 77 NNE 15 24 30.41 1030 10 16 0.00 0.00
11:55 pm 23:55 Clear 29 -1.9 22 -5.3 78 78 NNE 10 17 30.42 1030 10 16 0.00 0.00

Powered by AerisWeather